Regional Weather Roundup
Issued by NWS

Home | Current Version | Previous Version | Text Only | Print | Product List | Glossary Off
Versions: 1 2 3 4 5 6 7 8 9 10 11 12 13 14 15 16 17 18 19 20 21 22 23 24 25 26 27 28 29 30 31 32 33 34 35 36 37 38 39 40 41 42 43 44 45 46 47 48 49 50

000
ASUS45 KCYS 010310
RWRWY

WYOMING REGIONAL WEATHER ROUNDUP
NATIONAL WEATHER SERVICE CHEYENNE WY
900 PM MDT SAT APR 30 2016

NOTE:  "FAIR" INDICATES FEW OR NO CLOUDS BELOW 12,000 FEET
WITH NO SIGNIFICANT WEATHER AND/OR OBSTRUCTIONS TO VISIBILITY.

WYZ001-010400-
YELLOWSTONE NATIONAL PARK

CITY           SKY/WX    TMP DP  RH WIND       PRES   REMARKS
LK YELLOWSTONE   N/A     34  24  67 VRB5      30.24R WCI  30
W YELLOWSTONE  NOT AVBL

$$
WYZ002>013-054>058-071-098>099-010400-
NORTHERN WYOMING

CITY           SKY/WX    TMP DP  RH WIND       PRES   REMARKS
JACKSON        NOT AVBL
CODY           CLOUDY    43  30  61 NW15G21   30.25R
GREYBULL       FAIR      47  37  68 SE8       30.21R
WORLAND        CLOUDY    44  39  82 SW9       30.21R
SHERIDAN       CLOUDY    45  36  70 W7        30.27R
BUFFALO          N/A    N/A N/A N/A MISG      30.27R
GILLETTE       MOCLDY    43  32  65 N8        30.23R
HULETT         FAIR      43  32  65 NE7       30.24R
NEWCASTLE      FAIR      41  28  60 N8        30.20R

$$
WYZ014>020-022>026-101>103-010400-
CENTRAL WYOMING

CITY           SKY/WX    TMP DP  RH WIND       PRES   REMARKS
BIG PINEY      FAIR      34  27  75 S9        30.17R WCI  27
PINEDALE       CLOUDY    37  30  75 SW3       30.16R
DUBOIS         NOT AVBL
LANDER         LGT RAIN  35  32  88 W10       30.23R WCI  27
RIVERTON       CLOUDY    39  34  82 NW5       30.24R
CASPER         MOCLDY    34  30  85 NE6       30.22R WCI  29
DOUGLAS        FAIR      38  33  82 NW7       30.20R WCI  33

$$
WYZ021-027>030-104>119-010400-
SOUTHERN WYOMING

CITY           SKY/WX    TMP DP  RH WIND       PRES   REMARKS
EVANSTON       MOCLDY    35  27  72 E14G24    30.11R WCI  26
KEMMERER         N/A     32  28  86 E18       30.15R WCI  20
FORT BRIDGER   MOCLDY    36  34  93 E13G20    30.17R WCI  27
ROCK SPRINGS   FAIR      35  28  75 E24       30.16R WCI  23
DIXON          FAIR      36  24  62 NE16      30.14R WCI  26
RAWLINS        CLOUDY    32  27  81 NE10      30.18R WCI  24
SARATOGA       CLOUDY    32  27  80 NE15G24   30.17R WCI  22
LARAMIE        LGT SNOW  28  26  92 N10       30.16R FOG     WCI  19
CHEYENNE       LGT SNOW  31  29  92 N21G28    30.13R FOG     WCI  18
TORRINGTON     CLOUDY    38  35  89 N6        30.16R WCI  33
PINE BLUFFS    LGT SNOW  32  32 100 N15       30.13R WCI  22

$$



USA.gov is the U.S. government's official web portal to all federal, state and local government web resources and services.